Regional Weather Roundup
Issued by NWS Charleston, SC

Home | Current Version | Previous Version | Text Only | Print | Product List | Glossary On
Versions: 1 2 3 4 5 6 7 8 9 10 11 12 13 14 15 16 17 18 19 20 21 22 23 24 25 26 27 28 29 30 31 32 33 34 35 36 37 38 39 40 41 42 43 44 45 46 47 48 49 50
000
ASUS42 KCHS 271812
RWRCHS

REGIONAL WEATHER ROUNDUP
NATIONAL WEATHER SERVICE CHARLESTON SC
200 PM EDT THU APR 27 2017

NOTE: "FAIR" INDICATES FEW OR NO CLOUDS BELOW 12,000 FEET WITH NO
SIGNIFICANT WEATHER AND/OR OBSTRUCTIONS TO VISIBILITY.

NOT ALL STATIONS ARE QUALITY CONTROLLED. USE DATA WITH CAUTION...
ESPECIALLY DEWPOINT OBSERVATIONS.

SCZ027-030-031-034>040-042>050-271900-
...SOUTHEAST SOUTH CAROLINA...

CITY           SKY/WX    TMP DP  RH WIND       PRES   REMARKS
N CHARLESTON   PTSUNNY   82  63  52 S16G25    29.92F
6HR MIN TEMP:  69; 6HR MAX TEMP:  84;

WATERFRONT PRK   N/A     77  70  79 S16       29.90F
JOHNS ISLAND   FAIR      81  70  69 S14G22    29.93S
PINOPOLIS        N/A     82  64  54 SW7G15    29.84F
MONCKS CORNER  CLOUDY    82  61  47 S9G18     29.91S
SUMMERVILLE    FAIR      82  63  51 S7G17     29.91F
BEAUFORT MCAS  MOSUNNY   83  66  56 S14G23    29.90F
6HR MIN TEMP:  69; 6HR MAX TEMP:  84;

BEAUFORT ARPT  FAIR      81  68  65 S13G21    29.91S
HILTON HEAD IS SUNNY     79  70  73 S13G23    29.92F
WALTERBORO     PTCLDY    84  63  48 SW16      29.90F
ALLENDALE      FAIR      84  64  51 S9G15     29.86F

...SOUTHERN MIDLANDS AND PEE DEE...

CITY           SKY/WX    TMP DP  RH WIND       PRES   REMARKS
GEORGETOWN     FAIR      81  61  50 S14G22    29.93S
KINGSTREE      MOCLDY    81  63  54 S6        29.91F
ORANGEBURG     PTSUNNY   81  65  58 S13       29.88F
6HR MIN TEMP:  63; 6HR MAX TEMP:  82;

BARNWELL       FAIR      82  68  61 S12G17    29.87F
AIKEN          MOCLDY    75  64  69 S8        29.91F
MANNING        MOCLDY    79  64  61 S8G25     29.90F
COLUMBIA       PTSUNNY   82  65  56 S14       29.85F
6HR MIN TEMP:  64; 6HR MAX TEMP:  82;

SUMTER         MOSUNNY   80  65  59 S10       29.86F
6HR MIN TEMP:  64; 6HR MAX TEMP:  80;

FLORENCE       CLOUDY    80  64  58 S8        29.90F
6HR MIN TEMP:  64; 6HR MAX TEMP:  80;

MYRTLE BEACH   NOT AVBL
N MYRTLE BEACH MOSUNNY   77  68  73 S16       29.93S
6HR MIN TEMP:  71; 6HR MAX TEMP:  77;


$$

GAZ063-065-086>088-099>101-113>116-118-119-134>141-150-271900-
...SOUTHEAST GEORGIA...

CITY           SKY/WX    TMP DP  RH WIND       PRES   REMARKS
SAVANNAH ARPT  MOSUNNY   89  62  40 S16G29    29.88F
6HR MIN TEMP:  67; 6HR MAX TEMP:  89;

HUNTER AAF     SUNNY     85  69  59 S12G20    29.87S
6HR MIN TEMP:  68; 6HR MAX TEMP:  85;

FORT STEWART   MOSUNNY   89  61  39 S8        29.85F
6HR MIN TEMP:  64; 6HR MAX TEMP:  89;

STATESBORO     MOSUNNY   89  61  40 SW13G23   29.86F
SYLVANIA       PTCLDY   N/A N/A N/A S9        29.87F
CLAXTON        FAIR      87  67  52 S14G23    29.87F

...CSRA...CENTRAL AND FAR SOUTHEAST GEORGIA...

CITY           SKY/WX    TMP DP  RH WIND       PRES   REMARKS
THOMSON        CLOUDY    77  67  72 SW5       29.90S
AUGUSTA-BUSH   CLOUDY    82  67  60 S10       29.84F
6HR MIN TEMP:  64; 6HR MAX TEMP:  82;

AUGUSTA-DANIEL CLOUDY    79  65  62 S9        29.87F
SWAINSBORO     FAIR      86  63  45 SW12G22   29.86F
VIDALIA        MOSUNNY   88  64  45 S20G28    29.87S
EASTMAN        MOCLDY    87  51  28 SW14G21   29.87F
HAZLEHURST     FAIR      88  67  50 SW10G21   29.86S HX  91
ALMA           MOSUNNY   89  65  44 S14G25    29.87F HX  91
6HR MIN TEMP:  66; 6HR MAX TEMP:  89;

WAYCROSS       PTSUNNY   91  67  44 SW16G23   29.87F HX  94
JESUP          FAIR      90  57  33 SW10G18   29.88S
BAXLEY         PTSUNNY   88  70  55 SW16G24   29.87F HX  92
BRUNSWICK      SUNNY     86  64  48 S18G26    29.90F
SAINT SIMONS   SUNNY     83  65  54 S10G21    29.90F
6HR MIN TEMP:  73; 6HR MAX TEMP:  83;


$$

SCZ027-028-034-036>038-045-046-048>050-GAZ119-141-271900-
...LAKE AND SUPPLEMENTAL COASTAL OBSERVATIONS...

STATION/POSITION TIME  TEMP    WIND        PRES    WAVE   SWELL
                       AIR SEA DIR/SP/G            HT/PER HT/PER/DIR
                 (UTC) (F)     (DEG/KT/KT) (MB)    (FT/S) (FT/S/D)
WINYAH BAY       NOT AVBL
LAKE MURRAY      1720   73     180/  9/ 11 1011.2F
ACE BASIN NERRS  1645   80     170/  2     1013.0
FORT PULASKI     1748   78 74  200/ 12/ 19 1012.8F
SAPELO ISLAND    1700   83     170/ 15     1013.0

$$

ANZ835-935-AMZ111-154-330-350-352-354-370-450-454-472-271900-
...C-MAN AND BUOY OBSERVATIONS...

STATION/POSITION TIME  TEMP    WIND        PRES    WAVE   SWELL
                       AIR SEA DIR/SP/G            HT/PER HT/PER/DIR
                 (UTC) (F)     (DEG/KT/KT) (MB)    (FT/S) (FT/S/D)
BUOY 41004       1750   75 74  170/  8/ 10 1013.9F   4/ 6   3/180/ 6
BUOY 41008       1650   73 73  170/ 12/ 16 1013.3    3/ 9   2/120/ 9
FOLLY BEACH CMAN 1800   75     180/  6/  7 1014.2F
CAPERS NEARSHORE 1708   75 73  190/  6/  8 1013.8F
FRIPP NEARSHORE  1708   73 74  190/ 10/ 14 1013.0F


STATION/POSITION TIME  TEMP    WIND        PRES    WAVE   SWELL
                       AIR SEA DIR/SP/G            HT/PER HT/PER/DIR
                 (UTC) (F)     (DEG/KT/KT) (MB)    (FT/S) (FT/S/D)
5E ST. MARYS GA  NOT AVBL
FRYING PAN BUOY  1750   74     220/ 12/ 14 1014.0F   4/ 9   3/120/ 9
BUOY 41025       1750   76 77  240/ 14/ 16 1014.2F   5/ 9   3/130/ 9
CAPE LOOKOUT NC  1800   75     200/ 12/ 16 1013.2F
BUOY 41002       1750   74 75  180/ 14/ 16 1018.1R   5/ 8   3/110/ 8
BUOY 41010       1750   77 78  170/ 12/ 16 1016.0F   5/ 9   3/100/ 9
ST AUGUSTINE FL  1800   77 76  140/ 14/ 15 1014.0F


$$




USA.gov is the U.S. government's official web portal to all federal, state and local government web resources and services.